Jacksonville, AR

2:48 AM CDT on August 31, 2016 (GMT -0500)
Little Rock Air Force Base

Weather History for KLRF - February, 2013

Change the Weather History Date:

Sunday, February 10, 2013

  Actual Average Record
Temperature  
Mean Temperature 56 °F -  
Max Temperature 69 °F 54 °F 52 °F (2016)
Min Temperature 41 °F 30 °F 22 °F (2016)
Degree Days  
Heating Degree Days 9    
Growing Degree Days 6 (Base 50)    
Moisture  
Dew Point 51 °F    
Average Humidity 85    
Maximum Humidity 100    
Minimum Humidity 40    
Precipitation  
Precipitation 0.59 in - - ()
Sea Level Pressure  
Sea Level Pressure 29.83 in    
Wind  
Wind Speed 8 mph (South)    
Max Wind Speed 16 mph    
Max Gust Speed 23 mph    
Visibility 8 miles    
Events Fog , Rain , Thunderstorm    
Averages and records for this station are not official NWS values.
T = Trace of Precipitation, MM = Missing Value Source: NWS Daily Summary

Daily Weather History Graph

Daily Weather History Graph

Search for Another Location

Airport or City:

Trip Planner

Search our weather history database for the weather conditions in past years. The results will help you decide how hot, cold, wet, or windy it might be!

Date:

Astronomy

Feb. 10, 2013 Rise Set
Actual Time 6:59 AM CST 5:46 PM CST
Civil Twilight 6:33 AM CST 6:12 PM CST
Nautical Twilight 6:03 AM CST 6:42 PM CST
Astronomical Twilight 5:33 AM CST 7:12 PM CST
Moon 6:52 AM CST (2/10) 6:33 PM CST (2/10)
Length of Visible Light 11h 39m
Length of Day
10h 47m
New Moon, 0% of the Moon is Illuminated
Feb 10
New Moon
Feb 17
First Quarter
Feb 25
Full
Mar 4
Last Quarter
Mar 11
New

Hourly Weather History & Observations

Time (CST) Temp. Windchill Dew Point Humidity Pressure Visibility Wind Dir Wind Speed Gust Speed Precip Events Conditions
12:23 AM 44.6 °F 43.1 °F 41.0 °F 87% 29.98 in 10.0 mi NE 3.5 mph - N/A   Overcast
12:58 AM 45.3 °F 44.0 °F 41.0 °F 85% 29.97 in 10.0 mi East 3.5 mph - N/A   Mostly Cloudy
1:47 AM 46.4 °F 43.5 °F 41.0 °F 81% 29.93 in 10.0 mi ESE 5.8 mph - N/A Rain Light Rain
1:53 AM 46.4 °F 43.5 °F 41.0 °F 81% 29.92 in 10.0 mi ESE 5.8 mph - N/A   Mostly Cloudy
1:58 AM 48.2 °F - 41.0 °F 76% 29.93 in 10.0 mi ESE 5.8 mph - 0.00 in   Mostly Cloudy
2:58 AM 50.4 °F - 43.0 °F 76% 29.87 in 10.0 mi SE 9.2 mph - 0.00 in   Overcast
3:48 AM 53.6 °F - 46.4 °F 77% 29.85 in 10.0 mi SE 9.2 mph - N/A   Overcast
3:58 AM 52.9 °F - 46.0 °F 78% 29.85 in 10.0 mi SE 10.4 mph - N/A   Overcast
4:58 AM 53.8 °F - 48.0 °F 81% 29.83 in 10.0 mi SE 13.8 mph 19.6 mph N/A   Overcast
5:53 AM 53.6 °F - 50.0 °F 88% 29.82 in 10.0 mi SE 6.9 mph - N/A   Overcast
5:58 AM 54.1 °F - 50.5 °F 88% 29.83 in 10.0 mi SE 10.4 mph - N/A   Overcast
6:33 AM 53.6 °F - 51.8 °F 94% 29.80 in 9.0 mi SE 12.7 mph 17.3 mph N/A   Overcast
6:48 AM 53.6 °F - 51.8 °F 94% 29.79 in 10.0 mi SE 13.8 mph 19.6 mph N/A   Overcast
6:52 AM 55.4 °F - 51.8 °F 88% 29.80 in 10.0 mi SE 10.4 mph 19.6 mph N/A Thunderstorm Thunderstorm
6:58 AM 55.4 °F - 51.8 °F 88% 29.81 in 10.0 mi SE 12.7 mph 19.6 mph N/A Thunderstorm Thunderstorm
6:59 AM 55.4 °F - 51.8 °F 88% 29.80 in 10.0 mi SSE 13.8 mph 20.7 mph N/A Rain , Thunderstorm Light Thunderstorms and Rain
7:15 AM 53.6 °F - 53.6 °F 100% 29.79 in 5.0 mi SE 11.5 mph 17.3 mph N/A Rain , Thunderstorm Light Rain
7:18 AM 53.6 °F - 53.6 °F 100% 29.80 in 5.0 mi SE 10.4 mph 17.3 mph N/A Rain , Thunderstorm Light Thunderstorms and Rain
7:23 AM 53.6 °F - 53.6 °F 100% 29.80 in 5.0 mi SSE 9.2 mph 17.3 mph N/A Rain , Thunderstorm Light Thunderstorms and Rain
7:33 AM 53.6 °F - 53.6 °F 100% 29.81 in 5.0 mi SSE 6.9 mph - N/A Rain , Thunderstorm Light Rain
7:34 AM 53.6 °F - 53.6 °F 100% 29.81 in 5.0 mi SSE 9.2 mph - N/A Rain , Thunderstorm Light Thunderstorms and Rain
7:58 AM 54.9 °F - 54.7 °F 99% 29.85 in 3.0 mi SSE 10.4 mph - 0.09 in Rain , Thunderstorm Light Thunderstorms and Rain
8:00 AM 55.4 °F - 55.4 °F 100% 29.85 in 1.5 mi South 8.1 mph - N/A Rain Heavy Rain
8:05 AM 55.4 °F - 55.4 °F 100% 29.87 in 0.8 mi WSW 10.4 mph - N/A Rain Heavy Rain
8:10 AM 55.4 °F - 55.4 °F 100% 29.88 in 0.8 mi WSW 9.2 mph - N/A Rain Heavy Rain
8:15 AM 55.4 °F - 55.4 °F 100% 29.85 in 0.5 mi South 4.6 mph - N/A Fog , Rain Heavy Rain
8:20 AM 55.4 °F - 55.4 °F 100% 29.84 in 0.8 mi SSE 10.4 mph - N/A Rain Light Rain
8:25 AM 55.4 °F - 55.4 °F 100% 29.82 in 4.0 mi SE 10.4 mph - N/A Rain Light Rain
8:58 AM 56.5 °F - 56.3 °F 99% 29.83 in 9.0 mi SSE 10.4 mph - 0.47 in Rain Light Rain
9:17 AM 57.2 °F - 57.2 °F 100% 29.82 in 10.0 mi SSE 4.6 mph - N/A   Overcast
9:22 AM 57.2 °F - 57.2 °F 100% 29.82 in 10.0 mi Variable 5.8 mph - N/A   Overcast
9:27 AM 57.2 °F - 57.2 °F 100% 29.81 in 10.0 mi SE 11.5 mph - N/A   Overcast
9:32 AM 57.2 °F - 57.2 °F 100% 29.81 in 10.0 mi SSE 8.1 mph - N/A   Overcast
9:33 AM 57.2 °F - 57.2 °F 100% 29.81 in 10.0 mi SSE 8.1 mph - N/A Rain Light Rain
9:58 AM 57.2 °F - 56.8 °F 99% 29.77 in 10.0 mi SSE 13.8 mph 21.9 mph 0.03 in   Light Drizzle
10:12 AM 59.0 °F - 57.2 °F 94% 29.78 in 10.0 mi SSW 5.8 mph - N/A   Overcast
10:17 AM 59.0 °F - 57.2 °F 94% 29.78 in 10.0 mi Variable 4.6 mph - N/A   Overcast
10:52 AM 59.0 °F - 59.0 °F 100% 29.78 in 10.0 mi South 10.4 mph - N/A   Overcast
10:58 AM 59.4 °F - 59.0 °F 99% 29.79 in 10.0 mi South 8.1 mph - 0.00 in   Overcast
11:58 AM 62.6 °F - 59.0 °F 88% 29.77 in 10.0 mi South 10.4 mph - N/A   Overcast
12:03 PM 62.6 °F - 59.0 °F 88% 29.76 in 10.0 mi South 9.2 mph 17.3 mph N/A   Overcast
12:18 PM 62.6 °F - 59.0 °F 88% 29.76 in 10.0 mi South 9.2 mph - N/A   Mostly Cloudy
12:28 PM 62.6 °F - 59.0 °F 88% 29.75 in 10.0 mi South 10.4 mph - N/A   Scattered Clouds
12:58 PM 65.1 °F - 59.9 °F 83% 29.73 in 10.0 mi SSW 12.7 mph - N/A   Partly Cloudy
1:38 PM 68.0 °F - 57.2 °F 68% 29.71 in 10.0 mi South 11.5 mph - N/A   Mostly Cloudy
2:03 PM 68.0 °F - 57.2 °F 68% 29.73 in 10.0 mi South 11.5 mph 20.7 mph N/A   Scattered Clouds
2:32 PM 68.0 °F - 55.4 °F 64% 29.73 in 10.0 mi SW 12.7 mph - N/A   Partly Cloudy
2:58 PM 69.8 °F - 53.1 °F 55% 29.74 in 10.0 mi SSW 16.1 mph 23.0 mph N/A   Scattered Clouds
3:58 PM 68.0 °F - 46.0 °F 45% 29.76 in 10.0 mi WSW 15.0 mph - N/A   Clear
4:58 PM 66.4 °F - 46.2 °F 48% 29.78 in 10.0 mi SW 8.1 mph - N/A   Clear
5:58 PM 64.2 °F - 45.3 °F 50% 29.81 in 10.0 mi SSW 9.2 mph - N/A   Clear
6:58 PM 62.6 °F - 37.8 °F 40% 29.85 in 10.0 mi SW 11.5 mph - N/A   Clear
7:58 PM 57.2 °F - 37.0 °F 47% 29.89 in 10.0 mi WSW 8.1 mph - N/A   Clear
8:58 PM 52.5 °F - 36.7 °F 55% 29.93 in 10.0 mi SW 4.6 mph - N/A   Clear
9:58 PM 47.5 °F - 37.2 °F 68% 29.96 in 10.0 mi WSW 3.5 mph - N/A   Clear
10:58 PM 43.7 °F 41.1 °F 37.2 °F 78% 29.98 in 10.0 mi SW 4.6 mph - N/A   Clear
11:58 PM 41.0 °F - 36.5 °F 84% 30.00 in 10.0 mi West 2.3 mph - N/A   Clear